When you browse on this site, cookies collect data to enhance your experience and personalize the content and advertising you see.
Visit our Privacy Policy to learn more. By continuing to use the site, you agree to this use of cookies and data.
  • In Portugal
  • List of Countries
  • For 7 days
  • Water Temperature
  • Weather Map
  • Weather Widgets
  • user-avatar
    Login

    Hourly Weather Mlynczyska

    Today, 19 January, Sunday

    Time Temperature Precipitation Wind Pressure Humidity
    00:00 -1°C° 0 mm 1 mps 710 mmHg 87%
    01:00 -2°C° 0 mm 0 mps 711 mmHg 90%
    02:00 -1°C° 0.3 mm 1 mps 711 mmHg 92%
    03:00 -1°C° 0.3 mm 1 mps 711 mmHg 93%
    04:00 -1°C° 0.3 mm 1 mps 711 mmHg 95%
    05:00 0°C° 0.4 mm 1 mps 711 mmHg 96%
    06:00 0°C° 0.4 mm 1 mps 711 mmHg 97%
    07:00 0°C° 0.4 mm 1 mps 712 mmHg 97%
    08:00 0°C° 0.3 mm 1 mps 712 mmHg 97%
    09:00 0°C° 0.3 mm 1 mps 712 mmHg 97%
    10:00 0°C° 0.3 mm 1 mps 713 mmHg 96%
    11:00 0°C° 0.2 mm 1 mps 713 mmHg 96%
    12:00 +1°C° 0.2 mm 1 mps 713 mmHg 96%
    13:00 +1°C° 0.2 mm 1 mps 713 mmHg 95%
    14:00 +1°C° 0.2 mm 1 mps 714 mmHg 96%
    15:00 0°C° 0.2 mm 1 mps 714 mmHg 97%
    16:00 0°C° 0.2 mm 1 mps 714 mmHg 98%
    17:00 0°C° 0.3 mm 1 mps 715 mmHg 98%
    18:00 0°C° 0.3 mm 1 mps 716 mmHg 98%
    19:00 0°C° 0.3 mm 1 mps 716 mmHg 98%
    20:00 0°C° 0.3 mm 1 mps 717 mmHg 98%
    21:00 0°C° 0.3 mm 1 mps 717 mmHg 98%
    22:00 0°C° 0.3 mm 1 mps 718 mmHg 98%
    23:00 0°C° 0.2 mm 1 mps 718 mmHg 98%

    Tomorrow, 20 January, Monday

    Time Temperature Precipitation Wind Pressure Humidity
    00:00 0°C° 0.2 mm 1 mps 719 mmHg 98%
    01:00 0°C° 0.2 mm 1 mps 719 mmHg 98%
    02:00 0°C° 0.2 mm 1 mps 719 mmHg 98%
    03:00 0°C° 0.2 mm 1 mps 720 mmHg 98%
    04:00 0°C° 0.2 mm 1 mps 720 mmHg 98%
    05:00 0°C° 0.1 mm 1 mps 720 mmHg 98%
    06:00 0°C° 0.1 mm 1 mps 721 mmHg 97%
    07:00 0°C° 0.1 mm 1 mps 722 mmHg 97%
    08:00 0°C° 0.1 mm 1 mps 722 mmHg 95%
    09:00 0°C° 0.1 mm 1 mps 722 mmHg 94%
    10:00 0°C° 0.1 mm 1 mps 723 mmHg 92%
    11:00 +1°C° 0 mm 1 mps 723 mmHg 90%
    12:00 +1°C° 0 mm 1 mps 723 mmHg 88%
    13:00 +2°C° 0 mm 1 mps 724 mmHg 85%
    14:00 +1°C° 0 mm 1 mps 724 mmHg 87%
    15:00 +1°C° 0 mm 1 mps 724 mmHg 88%
    16:00 0°C° 0 mm 1 mps 724 mmHg 90%
    17:00 0°C° 0 mm 1 mps 724 mmHg 90%
    18:00 -1°C° 0 mm 1 mps 724 mmHg 91%
    19:00 -2°C° 0 mm 1 mps 724 mmHg 92%
    20:00 -2°C° 0 mm 1 mps 724 mmHg 92%
    21:00 -2°C° 0 mm 1 mps 724 mmHg 92%
    22:00 -3°C° 0 mm 1 mps 724 mmHg 92%
    23:00 -3°C° 0 mm 1 mps 724 mmHg 91%

    Day after tomorrow, 21 January, Tuesday

    Time Temperature Precipitation Wind Pressure Humidity
    00:00 -3°C° 0 mm 1 mps 724 mmHg 90%
    01:00 -3°C° 0 mm 1 mps 723 mmHg 90%
    02:00 -3°C° 0 mm 1 mps 723 mmHg 88%
    03:00 -3°C° 0 mm 1 mps 723 mmHg 87%
    04:00 -3°C° 0 mm 1 mps 723 mmHg 86%
    05:00 -3°C° 0 mm 1 mps 722 mmHg 84%
    06:00 -3°C° 0 mm 1 mps 722 mmHg 82%
    07:00 -3°C° 0 mm 1 mps 722 mmHg 81%
    08:00 -1°C° 0 mm 1 mps 722 mmHg 77%
    09:00 0°C° 0 mm 1 mps 722 mmHg 73%
    10:00 +1°C° 0 mm 1 mps 722 mmHg 69%
    11:00 +2°C° 0 mm 1 mps 722 mmHg 67%
    12:00 +3°C° 0 mm 1 mps 722 mmHg 66%
    13:00 +4°C° 0 mm 1 mps 721 mmHg 64%
    14:00 +3°C° 0 mm 1 mps 721 mmHg 69%
    15:00 +2°C° 0 mm 1 mps 720 mmHg 73%
    16:00 0°C° 0 mm 1 mps 720 mmHg 78%
    17:00 0°C° 0 mm 1 mps 719 mmHg 78%
    18:00 -1°C° 0 mm 1 mps 719 mmHg 77%
    19:00 -1°C° 0 mm 1 mps 719 mmHg 77%
    20:00 -1°C° 0 mm 1 mps 718 mmHg 76%
    21:00 -1°C° 0 mm 1 mps 718 mmHg 74%
    22:00 -1°C° 0 mm 1 mps 718 mmHg 73%
    23:00 -2°C° 0 mm 1 mps 717 mmHg 72%

    22 January, Wednesday

    Time Temperature Precipitation Wind Pressure Humidity
    00:00 -4°C° 0 mm 2 mps 717 mmHg 72%
    01:00 -4°C° 0 mm 2 mps 717 mmHg 71%
    02:00 -4°C° 0 mm 2 mps 717 mmHg 71%
    03:00 -2°C° 0 mm 1 mps 716 mmHg 70%
    04:00 -2°C° 0 mm 1 mps 716 mmHg 70%
    05:00 -2°C° 0 mm 1 mps 715 mmHg 70%
    06:00 -2°C° 0 mm 1 mps 715 mmHg 71%
    07:00 -4°C° 0 mm 2 mps 714 mmHg 71%
    08:00 -3°C° 0 mm 2 mps 714 mmHg 68%
    09:00 -2°C° 0 mm 2 mps 714 mmHg 65%
    10:00 -1°C° 0 mm 2 mps 714 mmHg 62%
    11:00 0°C° 0 mm 3 mps 714 mmHg 60%
    12:00 +1°C° 0 mm 3 mps 714 mmHg 59%
    13:00 +2°C° 0 mm 3 mps 714 mmHg 57%
    14:00 +1°C° 0 mm 3 mps 713 mmHg 63%
    15:00 0°C° 0 mm 3 mps 713 mmHg 69%
    16:00 -1°C° 0 mm 3 mps 713 mmHg 74%
    17:00 -1°C° 0 mm 3 mps 713 mmHg 79%
    18:00 -2°C° 0 mm 4 mps 713 mmHg 84%
    19:00 -2°C° 0 mm 4 mps 713 mmHg 89%
    20:00 -2°C° 0.1 mm 4 mps 713 mmHg 91%
    21:00 -2°C° 0.1 mm 4 mps 713 mmHg 93%
    22:00 -3°C° 0.1 mm 4 mps 713 mmHg 94%
    23:00 -3°C° 0.1 mm 4 mps 713 mmHg 93%

    23 January, Thursday

    Time Temperature Precipitation Wind Pressure Humidity
    00:00 -3°C° 0.1 mm 4 mps 713 mmHg 92%
    01:00 -3°C° 0.1 mm 4 mps 714 mmHg 91%
    02:00 -3°C° 0 mm 4 mps 714 mmHg 91%
    03:00 -3°C° 0 mm 4 mps 714 mmHg 91%
    04:00 -4°C° 0 mm 4 mps 714 mmHg 91%
    05:00 -4°C° 0.1 mm 4 mps 714 mmHg 90%
    06:00 -4°C° 0.1 mm 4 mps 715 mmHg 89%
    07:00 -5°C° 0.1 mm 3 mps 715 mmHg 88%
    08:00 -4°C° 0 mm 3 mps 715 mmHg 84%
    09:00 -3°C° 0 mm 2 mps 716 mmHg 80%
    10:00 -1°C° 0 mm 1 mps 716 mmHg 76%
    11:00 0°C° 0 mm 1 mps 716 mmHg 72%
    12:00 0°C° 0 mm 1 mps 717 mmHg 69%
    13:00 +1°C° 0 mm 1 mps 717 mmHg 65%
    14:00 0°C° 0 mm 1 mps 717 mmHg 69%
    15:00 -2°C° 0 mm 0 mps 716 mmHg 73%
    16:00 -3°C° 0 mm 0 mps 716 mmHg 77%
    17:00 -3°C° 0 mm 0 mps 716 mmHg 78%
    18:00 -3°C° 0 mm 1 mps 716 mmHg 79%
    19:00 -3°C° 0 mm 1 mps 716 mmHg 80%
    20:00 -3°C° 0 mm 1 mps 716 mmHg 79%
    21:00 -3°C° 0 mm 1 mps 716 mmHg 78%
    22:00 -3°C° 0 mm 1 mps 716 mmHg 77%
    23:00 -3°C° 0 mm 1 mps 716 mmHg 77%

    24 January, Friday

    Time Temperature Precipitation Wind Pressure Humidity
    00:00 -3°C° 0 mm 1 mps 716 mmHg 77%
    01:00 -3°C° 0 mm 1 mps 715 mmHg 77%
    02:00 -3°C° 0 mm 1 mps 715 mmHg 77%
    03:00 -3°C° 0 mm 1 mps 715 mmHg 78%
    04:00 -3°C° 0 mm 1 mps 714 mmHg 79%
    05:00 -3°C° 0 mm 1 mps 714 mmHg 78%
    06:00 -3°C° 0 mm 1 mps 714 mmHg 78%
    07:00 -3°C° 0 mm 1 mps 714 mmHg 78%
    08:00 -2°C° 0 mm 1 mps 714 mmHg 74%
    09:00 -1°C° 0 mm 1 mps 714 mmHg 71%
    10:00 0°C° 0 mm 1 mps 714 mmHg 67%
    11:00 +1°C° 0 mm 1 mps 714 mmHg 65%
    12:00 +2°C° 0 mm 1 mps 714 mmHg 64%
    13:00 +3°C° 0 mm 1 mps 713 mmHg 62%
    14:00 +2°C° 0 mm 1 mps 713 mmHg 66%
    15:00 +1°C° 0 mm 1 mps 712 mmHg 71%
    16:00 0°C° 0 mm 1 mps 712 mmHg 75%
    17:00 -1°C° 0 mm 1 mps 711 mmHg 75%
    18:00 -1°C° 0 mm 1 mps 711 mmHg 74%
    19:00 -4°C° 0 mm 2 mps 711 mmHg 74%
    20:00 -4°C° 0 mm 2 mps 711 mmHg 72%
    21:00 -4°C° 0 mm 2 mps 710 mmHg 71%
    22:00 -4°C° 0 mm 2 mps 710 mmHg 69%
    23:00 -5°C° 0 mm 2 mps 710 mmHg 68%
    Show more